Weather History for KJOT - July, 2013

Change the Weather History Date:

Wednesday, July 24, 2013

  Actual Average (KLOT) Record (KLOT)
Temperature  
Mean Temperature 62 °F 74 °F  
Max Temperature 74 °F 84 °F 102 °F (2005)
Min Temperature 51 °F 64 °F 52 °F (2000)
Degree Days  
Heating Degree Days 2 0  
Month to date heating degree days 0  
Since 1 June heating degree days 33  
Since 1 July heating degree days 0  
Cooling Degree Days 0 9  
Month to date cooling degree days 216  
Year to date cooling degree days 454  
Since 1 June cooling degree days 396  
Growing Degree Days 12 (Base 50)    
Moisture  
Dew Point 50 °F    
Average Humidity 60    
Maximum Humidity 95    
Minimum Humidity 37    
Precipitation  
Precipitation 0.00 in 0.17 in 2.62 in (2010)
Month to date precipitation 3.57  
Year to date precipitation 22.61  
Sea Level Pressure  
Sea Level Pressure 30.04 in    
Wind  
Wind Speed 5 mph (NE)    
Max Wind Speed 12 mph    
Max Gust Speed 21 mph    
Visibility 10 miles    
Events      
T = Trace of Precipitation, MM = Missing Value Source: NWS Daily Summary

Daily Weather History Graph

Daily Weather History Graph

Search for Another Location

Airport or City:

Trip Planner

Search our weather history database for the weather conditions in past years. The results will help you decide how hot, cold, wet, or windy it might be!

Date:

Astronomy

Jul. 24, 2013 Rise Set
Actual Time 5:39 AM CDT 8:17 PM CDT
Civil Twilight 5:07 AM CDT 8:49 PM CDT
Nautical Twilight 4:27 AM CDT 9:29 PM CDT
Astronomical Twilight 3:42 AM CDT 10:14 PM CDT
Moon 9:20 PM CDT (7/24) 8:02 AM CDT (7/24)
Length of Visible Light 15h 41m
Length of Day
14h 37m
Waning Gibbous, 94% of the Moon is Illuminated
Jul 24
Waning Gibbous
Jul 29
Last Quarter
Aug 6
New
Aug 14
First Quarter
Aug 20
Full

Hourly Weather History & Observations

Time (CDT) Temp. Dew Point Humidity Pressure Visibility Wind Dir Wind Speed Gust Speed Precip Events Conditions
12:15 AM 61.7 °F 54.3 °F 77% 29.99 in 10.0 mi NE 4.6 mph - N/A   Clear
12:35 AM 61.2 °F 54.3 °F 78% 29.99 in 10.0 mi NNE 4.6 mph - N/A   Clear
12:55 AM 61.2 °F 54.5 °F 79% 29.99 in 10.0 mi NNE 5.8 mph - N/A   Clear
1:15 AM 61.3 °F 54.1 °F 77% 29.99 in 10.0 mi North 5.8 mph - N/A   Clear
1:35 AM 61.3 °F 54.1 °F 77% 29.98 in 10.0 mi NNE 8.1 mph - N/A   Clear
1:55 AM 60.8 °F 54.1 °F 79% 29.98 in 10.0 mi NNE 6.9 mph - N/A   Clear
2:15 AM 60.8 °F 54.0 °F 78% 29.98 in 10.0 mi North 4.6 mph - N/A   Clear
2:35 AM 60.1 °F 53.4 °F 79% 29.99 in 10.0 mi NNE 3.5 mph - N/A   Clear
2:55 AM 59.2 °F 53.1 °F 80% 30.00 in 10.0 mi Calm Calm - N/A   Clear
3:15 AM 58.8 °F 52.7 °F 80% 30.00 in 10.0 mi Calm Calm - N/A   Clear
3:35 AM 58.5 °F 52.3 °F 80% 29.99 in 10.0 mi North 3.5 mph - N/A   Clear
3:55 AM 58.5 °F 51.8 °F 79% 29.99 in 10.0 mi Calm Calm - N/A   Clear
4:15 AM 58.1 °F 52.0 °F 80% 30.00 in 10.0 mi Calm Calm - N/A   Clear
4:35 AM 54.9 °F 50.0 °F 84% 30.01 in 10.0 mi Calm Calm - N/A   Clear
4:55 AM 54.5 °F 50.7 °F 87% 30.02 in 10.0 mi Calm Calm - N/A   Clear
5:15 AM 52.7 °F 50.2 °F 91% 30.02 in 10.0 mi Calm Calm - N/A   Clear
5:35 AM 52.5 °F 50.7 °F 94% 30.02 in 10.0 mi Calm Calm - N/A   Clear
5:55 AM 51.6 °F 50.2 °F 95% 30.03 in 10.0 mi Calm Calm - N/A   Clear
6:15 AM 54.3 °F 50.9 °F 88% 30.04 in 10.0 mi Calm Calm - N/A   Clear
6:35 AM 57.4 °F 52.3 °F 83% 30.04 in 10.0 mi Calm Calm - N/A   Clear
6:55 AM 59.9 °F 52.5 °F 77% 30.04 in 10.0 mi Calm Calm - N/A   Clear
7:15 AM 61.0 °F 52.0 °F 72% 30.04 in 10.0 mi Calm Calm - N/A   Clear
7:35 AM 62.2 °F 51.1 °F 67% 30.05 in 10.0 mi ENE 4.6 mph - N/A   Clear
7:55 AM 63.5 °F 50.5 °F 63% 30.05 in 10.0 mi NE 5.8 mph - N/A   Clear
8:15 AM 64.6 °F 50.5 °F 60% 30.06 in 10.0 mi ENE 9.2 mph - N/A   Clear
8:35 AM 65.1 °F 50.4 °F 59% 30.06 in 10.0 mi ENE 9.2 mph - N/A   Clear
8:55 AM 65.7 °F 50.0 °F 57% 30.05 in 10.0 mi NNE 9.2 mph - N/A   Scattered Clouds
9:15 AM 66.7 °F 49.5 °F 54% 30.06 in 10.0 mi NE 10.4 mph - N/A   Clear
9:35 AM 67.1 °F 48.7 °F 52% 30.06 in 10.0 mi East 10.4 mph - N/A   Clear
9:55 AM 68.5 °F 48.9 °F 49% 30.06 in 10.0 mi ENE 8.1 mph 17.3 mph N/A   Clear
10:15 AM 68.5 °F 48.7 °F 49% 30.06 in 10.0 mi ENE 5.8 mph - N/A   Clear
10:35 AM 69.8 °F 48.9 °F 47% 30.05 in 10.0 mi NE 9.2 mph - N/A   Clear
10:55 AM 70.5 °F 48.9 °F 46% 30.06 in 10.0 mi ENE 6.9 mph - N/A   Clear
11:15 AM 70.5 °F 48.7 °F 46% 30.06 in 10.0 mi East 10.4 mph - N/A   Clear
11:35 AM 71.1 °F 47.8 °F 44% 30.06 in 10.0 mi NNE 8.1 mph - N/A   Clear
11:55 AM 71.8 °F 48.2 °F 43% 30.07 in 10.0 mi NE 11.5 mph 17.3 mph N/A   Clear
12:15 PM 72.9 °F 49.1 °F 43% 30.06 in 10.0 mi ENE 9.2 mph - N/A   Scattered Clouds
12:35 PM 71.8 °F 47.3 °F 42% 30.06 in 10.0 mi NE 8.1 mph 17.3 mph N/A   Scattered Clouds
12:55 PM 72.9 °F 48.0 °F 41% 30.06 in 10.0 mi NE 11.5 mph 17.3 mph N/A   Scattered Clouds
1:15 PM 73.8 °F 47.3 °F 39% 30.06 in 10.0 mi ENE 9.2 mph - N/A   Clear
1:35 PM 73.6 °F 47.3 °F 39% 30.06 in 10.0 mi ENE 8.1 mph 16.1 mph N/A   Clear
1:55 PM 73.0 °F 47.5 °F 40% 30.05 in 10.0 mi NE 9.2 mph - N/A   Clear
2:15 PM 73.6 °F 46.4 °F 38% 30.05 in 10.0 mi ENE 10.4 mph 20.7 mph N/A   Clear
2:35 PM 73.9 °F 47.3 °F 39% 30.05 in 10.0 mi NE 11.5 mph - N/A   Clear
2:55 PM 74.3 °F 46.9 °F 38% 30.04 in 10.0 mi East 10.4 mph - N/A   Clear
3:15 PM 73.0 °F 47.5 °F 40% 30.04 in 10.0 mi East 6.9 mph - N/A   Clear
3:35 PM 73.6 °F 47.1 °F 39% 30.04 in 10.0 mi NE 8.1 mph - N/A   Clear
3:55 PM 73.4 °F 47.3 °F 39% 30.04 in 10.0 mi ENE 8.1 mph - N/A   Clear
4:15 PM 73.6 °F 46.4 °F 38% 30.03 in 10.0 mi ENE 5.8 mph - N/A   Clear
4:35 PM 74.1 °F 46.2 °F 37% 30.03 in 10.0 mi ENE 5.8 mph - N/A   Clear
4:55 PM 73.0 °F 46.0 °F 38% 30.03 in 10.0 mi ENE 8.1 mph - N/A   Clear
5:15 PM 72.5 °F 46.2 °F 39% 30.04 in 10.0 mi ENE 9.2 mph - N/A   Clear
5:35 PM 72.1 °F 45.9 °F 39% 30.04 in 10.0 mi ENE 6.9 mph - N/A   Clear
5:55 PM 72.3 °F 45.3 °F 38% 30.04 in 10.0 mi East 4.6 mph - N/A   Clear
6:15 PM 72.0 °F 45.7 °F 39% 30.04 in 10.0 mi NE 8.1 mph - N/A   Clear
6:35 PM 71.4 °F 46.6 °F 41% 30.04 in 10.0 mi NE 10.4 mph - N/A   Clear
6:55 PM 70.7 °F 46.6 °F 42% 30.05 in 10.0 mi ENE 4.6 mph - N/A   Clear
7:15 PM 69.8 °F 47.7 °F 45% 30.06 in 10.0 mi NE 4.6 mph - N/A   Clear
7:35 PM 68.4 °F 48.2 °F 48% 30.06 in 10.0 mi ENE 5.8 mph - N/A   Clear
7:55 PM 66.7 °F 49.1 °F 53% 30.06 in 10.0 mi East 8.1 mph - N/A   Clear
8:15 PM 66.0 °F 50.0 °F 56% 30.06 in 10.0 mi ENE 10.4 mph - N/A   Clear
8:35 PM 64.9 °F 50.4 °F 59% 30.06 in 10.0 mi ENE 5.8 mph - N/A   Clear
8:55 PM 64.6 °F 50.2 °F 60% 30.06 in 10.0 mi ENE 5.8 mph - N/A   Clear
9:15 PM 63.3 °F 50.2 °F 62% 30.06 in 10.0 mi ENE 5.8 mph - N/A   Clear
9:35 PM 62.6 °F 50.2 °F 64% 30.06 in 10.0 mi ENE 4.6 mph - N/A   Clear
9:55 PM 62.2 °F 50.2 °F 65% 30.06 in 10.0 mi ENE 4.6 mph - N/A   Clear
10:15 PM 61.0 °F 50.2 °F 68% 30.06 in 10.0 mi ENE 4.6 mph - N/A   Clear
10:35 PM 62.1 °F 50.2 °F 65% 30.07 in 10.0 mi Calm Calm - N/A   Clear
10:55 PM 59.2 °F 50.4 °F 73% 30.08 in 10.0 mi Calm Calm - N/A   Clear
11:15 PM 58.1 °F 50.9 °F 77% 30.07 in 10.0 mi Calm Calm - N/A   Clear
11:35 PM 57.6 °F 51.4 °F 80% 30.07 in 10.0 mi Calm Calm - N/A   Clear
11:55 PM 56.3 °F 51.1 °F 83% 30.07 in 10.0 mi Calm Calm - N/A   Clear